owner,sensor,date,latitude,longitude,vertical_datum,wind_speed,wind_to_direction,wind_speed_of_gust,qcFlag 
TABS,ioos:station:wmo:42046:1,2008-11-01T00:00:00Z,27.8903,-94.0367,4.0,4.892954118,91.9914922,6.39,'11111222,11111222,11111222' 
TABS,ioos:station:wmo:42046:1,2008-11-01T00:30:00Z,27.8903,-94.0367,4.0,4.835959057,92.84506987,6.62,'11111222,11111222,11111222' 
TABS,ioos:station:wmo:42046:1,2008-11-01T01:00:00Z,27.8903,-94.0367,4.0,4.486357097,97.29966726,5.98,'11111222,11111222,11111222' 
TABS,ioos:station:wmo:42046:1,2008-11-01T01:30:00Z,27.8903,-94.0367,4.0,4.558080736,105.1342318,6.01,'11111222,11111222,11111222' 
TABS,ioos:station:wmo:42046:1,2008-11-01T02:00:00Z,27.8903,-94.0367,4.0,4.164540791,104.6038966,5.59,'11111222,11111222,11111222' 
TABS,ioos:station:wmo:42046:1,2008-11-01T02:30:00Z,27.8903,-94.0367,4.0,4.036248258,114.5970439,5.77,'11111222,11111222,11111222' 
TABS,ioos:station:wmo:42046:1,2008-11-01T03:00:00Z,27.8903,-94.0367,4.0,5.089449872,100.7583628,6.56,'11111222,11111222,11111222' 
TABS,ioos:station:wmo:42046:1,2008-11-01T03:30:00Z,27.8903,-94.0367,4.0,4.692430074,106.4657199,6.33,'11111222,11111222,11111222' 
TABS,ioos:station:wmo:42046:1,2008-11-01T04:00:00Z,27.8903,-94.0367,4.0,5.022598929,101.0194886,6.91,'11111222,11111222,11111222' 
TABS,ioos:station:wmo:42046:1,2008-11-01T04:30:00Z,27.8903,-94.0367,4.0,5.195113088,104.0366316,7.1,'11111222,11111222,11111222' 
TABS,ioos:station:wmo:42046:1,2008-11-01T05:00:00Z,27.8903,-94.0367,4.0,4.339228042,106.054603,6.0,'11111222,11111222,11111222' 
TABS,ioos:station:wmo:42046:1,2008-11-01T05:30:00Z,27.8903,-94.0367,4.0,5.453998533,101.2073144,7.2,'11111222,11111222,11111222' 
TABS,ioos:station:wmo:42046:1,2008-11-01T06:00:00Z,27.8903,-94.0367,4.0,5.34510056,100.2381299,7.41,'11111222,11111222,11111222' 
TABS,ioos:station:wmo:42046:1,2008-11-01T06:30:00Z,27.8903,-94.0367,4.0,4.922204791,99.82631574,6.5,'11111222,11111222,11111222' 
TABS,ioos:station:wmo:42046:1,2008-11-01T07:00:00Z,27.8903,-94.0367,4.0,4.36766528,100.821512,6.11,'11111222,11111222,11111222' 
TABS,ioos:station:wmo:42046:1,2008-11-01T07:30:00Z,27.8903,-94.0367,4.0,4.680096153,90.36769567,6.09,'11111222,11111222,11111222' 
TABS,ioos:station:wmo:42046:1,2008-11-01T08:00:00Z,27.8903,-94.0367,4.0,4.338939963,97.68230757,6.07,'11111222,11111222,11111222' 
TABS,ioos:station:wmo:42046:1,2008-11-01T08:30:00Z,27.8903,-94.0367,4.0,4.381643527,88.43022795,6.32,'11111222,11111222,11111222' 
TABS,ioos:station:wmo:42046:1,2008-11-01T09:00:00Z,27.8903,-94.0367,4.0,4.30954754,84.5403524,5.87,'11111222,11111222,11111222' 
TABS,ioos:station:wmo:42046:1,2008-11-01T09:30:00Z,27.8903,-94.0367,4.0,4.185713798,77.72320276,5.47,'11111222,11111222,11111222' 
TABS,ioos:station:wmo:42046:1,2008-11-01T10:00:00Z,27.8903,-94.0367,4.0,4.20830132,75.26991034,6.0,'11111222,11111222,11111222' 
TABS,ioos:station:wmo:42046:1,2008-11-01T10:30:00Z,27.8903,-94.0367,4.0,3.887377008,70.30614316,5.34,'11111222,11111222,11111222' 
TABS,ioos:station:wmo:42046:1,2008-11-01T11:00:00Z,27.8903,-94.0367,4.0,3.10716913,60.71220789,4.66,'11111222,11111222,11111222' 
TABS,ioos:station:wmo:42046:1,2008-11-01T11:30:00Z,27.8903,-94.0367,4.0,3.649726017,78.78203565,5.45,'11111222,11111222,11111222' 
TABS,ioos:station:wmo:42046:1,2008-11-01T12:00:00Z,27.8903,-94.0367,4.0,3.508233174,65.40700237,5.13,'11111222,11111222,11111222' 
TABS,ioos:station:wmo:42046:1,2008-11-01T12:30:00Z,27.8903,-94.0367,4.0,3.026945655,68.69031832,4.63,'11111222,11111222,11111222' 
TABS,ioos:station:wmo:42046:1,2008-11-01T13:00:00Z,27.8903,-94.0367,4.0,3.447100231,60.83203391,4.55,'11111222,11111222,11111222' 
TABS,ioos:station:wmo:42046:1,2008-11-01T13:30:00Z,27.8903,-94.0367,4.0,3.224934108,64.46754799,4.34,'11111222,11111222,11111222' 
TABS,ioos:station:wmo:42046:1,2008-11-01T14:00:00Z,27.8903,-94.0367,4.0,3.158306508,74.95133864,4.48,'11111222,11111222,11111222' 
TABS,ioos:station:wmo:42046:1,2008-11-01T14:30:00Z,27.8903,-94.0367,4.0,3.058005886,53.24218539,4.54,'11111222,11111222,11111222' 
TABS,ioos:station:wmo:42046:1,2008-11-01T15:00:00Z,27.8903,-94.0367,4.0,2.697424698,71.63184291,3.95,'11111222,11111222,11111222' 
TABS,ioos:station:wmo:42046:1,2008-11-01T15:30:00Z,27.8903,-94.0367,4.0,2.698091918,70.28866249,3.87,'11111222,11111222,11111222' 
TABS,ioos:station:wmo:42046:1,2008-11-01T16:00:00Z,27.8903,-94.0367,4.0,2.703257294,74.11244773,4.07,'11111222,11111222,11111222' 
TABS,ioos:station:wmo:42046:1,2008-11-01T16:30:00Z,27.8903,-94.0367,4.0,2.112368339,87.28617598,3.34,'11111222,11111222,11111222' 
TABS,ioos:station:wmo:42046:1,2008-11-01T17:00:00Z,27.8903,-94.0367,4.0,2.711899703,75.04097799,4.31,'11111222,11111222,11111222' 
TABS,ioos:station:wmo:42046:1,2008-11-01T17:30:00Z,27.8903,-94.0367,4.0,2.264972406,93.79765992,3.23,'11111222,11111222,11111222' 
TABS,ioos:station:wmo:42046:1,2008-11-01T18:00:00Z,27.8903,-94.0367,4.0,2.337733946,78.40127459,3.31,'11111222,11111222,11111222' 
TABS,ioos:station:wmo:42046:1,2008-11-01T18:30:00Z,27.8903,-94.0367,4.0,2.294907406,58.17952158,3.26,'11111222,11111222,11111222' 
TABS,ioos:station:wmo:42046:1,2008-11-01T19:00:00Z,27.8903,-94.0367,4.0,2.461097316,44.01192622,3.63,'11111222,11111222,11111222' 
TABS,ioos:station:wmo:42046:1,2008-11-01T19:30:00Z,27.8903,-94.0367,4.0,2.697795396,31.50982372,3.96,'11111222,11111222,11111222' 
TABS,ioos:station:wmo:42046:1,2008-11-01T20:00:00Z,27.8903,-94.0367,4.0,2.813698633,41.10899438,4.05,'11111222,11111222,11111222' 
TABS,ioos:station:wmo:42046:1,2008-11-01T20:30:00Z,27.8903,-94.0367,4.0,2.792579453,50.66695674,4.02,'11111222,11111222,11111222' 
TABS,ioos:station:wmo:42046:1,2008-11-01T21:00:00Z,27.8903,-94.0367,4.0,3.171655719,42.18831729,4.52,'11111222,11111222,11111222' 
TABS,ioos:station:wmo:42046:1,2008-11-01T21:30:00Z,27.8903,-94.0367,4.0,3.73523761,43.26398378,5.32,'11111222,11111222,11111222' 
TABS,ioos:station:wmo:42046:1,2008-11-01T22:00:00Z,27.8903,-94.0367,4.0,3.445243097,46.7638795,5.13,'11111222,11111222,11111222' 
TABS,ioos:station:wmo:42046:1,2008-11-01T22:30:00Z,27.8903,-94.0367,4.0,3.449710133,48.40751575,5.15,'11111222,11111222,11111222' 
TABS,ioos:station:wmo:42046:1,2008-11-01T23:00:00Z,27.8903,-94.0367,4.0,3.351715978,44.75793197,5.27,'11111222,11111222,11111222' 
TABS,ioos:station:wmo:42046:1,2008-11-01T23:30:00Z,27.8903,-94.0367,4.0,3.389041162,38.28986319,4.81,'11111222,11111222,11111222' 
TABS,ioos:station:wmo:42046:1,2008-11-02T00:00:00Z,27.8903,-94.0367,4.0,3.628002205,53.06659718,5.64,'11111222,11111222,11111222' 
TABS,ioos:station:wmo:42046:1,2008-11-02T00:30:00Z,27.8903,-94.0367,4.0,4.040049505,52.84612816,5.34,'11111222,11111222,11111222' 
TABS,ioos:station:wmo:42046:1,2008-11-02T01:00:00Z,27.8903,-94.0367,4.0,4.441103466,62.79992102,5.98,'11111222,11111222,11111222' 
TABS,ioos:station:wmo:42046:1,2008-11-02T01:30:00Z,27.8903,-94.0367,4.0,3.803958465,66.9394856,5.4,'11111222,11111222,11111222' 
TABS,ioos:station:wmo:42046:1,2008-11-02T02:00:00Z,27.8903,-94.0367,4.0,4.608220915,80.12846935,6.94,'11111222,11111222,11111222' 
TABS,ioos:station:wmo:42046:1,2008-11-02T02:30:00Z,27.8903,-94.0367,4.0,4.516868384,94.95366681,5.96,'11111222,11111222,11111222' 
TABS,ioos:station:wmo:42046:1,2008-11-02T03:00:00Z,27.8903,-94.0367,4.0,4.620054112,95.34079923,6.09,'11111222,11111222,11111222' 
TABS,ioos:station:wmo:42046:1,2008-11-02T03:30:00Z,27.8903,-94.0367,4.0,4.680619617,99.96583105,6.35,'11111222,11111222,11111222' 
TABS,ioos:station:wmo:42046:1,2008-11-02T04:00:00Z,27.8903,-94.0367,4.0,4.822955525,95.5927924,6.37,'11111222,11111222,11111222' 
TABS,ioos:station:wmo:42046:1,2008-11-02T04:30:00Z,27.8903,-94.0367,4.0,4.286956963,83.57084637,5.86,'11111222,11111222,11111222' 
TABS,ioos:station:wmo:42046:1,2008-11-02T05:00:00Z,27.8903,-94.0367,4.0,4.132723073,92.08046228,5.8,'11111222,11111222,11111222' 
TABS,ioos:station:wmo:42046:1,2008-11-02T05:30:00Z,27.8903,-94.0367,4.0,3.811626949,82.6135532,5.53,'11111222,11111222,11111222' 
TABS,ioos:station:wmo:42046:1,2008-11-02T06:00:00Z,27.8903,-94.0367,4.0,3.81365966,102.7247468,5.01,'11111222,11111222,11111222' 
TABS,ioos:station:wmo:42046:1,2008-11-02T06:30:00Z,27.8903,-94.0367,4.0,3.702674709,101.3710215,5.26,'11111222,11111222,11111222' 
TABS,ioos:station:wmo:42046:1,2008-11-02T07:00:00Z,27.8903,-94.0367,4.0,3.344323549,92.91415195,4.64,'11111222,11111222,11111222' 
TABS,ioos:station:wmo:42046:1,2008-11-02T07:30:00Z,27.8903,-94.0367,4.0,3.003614489,99.77632293,4.44,'11111222,11111222,11111222' 
TABS,ioos:station:wmo:42046:1,2008-11-02T08:00:00Z,27.8903,-94.0367,4.0,3.203201523,98.25698451,4.49,'11111222,11111222,11111222' 
TABS,ioos:station:wmo:42046:1,2008-11-02T08:30:00Z,27.8903,-94.0367,4.0,2.940017007,100.5841368,4.4,'11111222,11111222,11111222' 
TABS,ioos:station:wmo:42046:1,2008-11-02T09:00:00Z,27.8903,-94.0367,4.0,3.16227766,87.82484005,4.93,'11111222,11111222,11111222' 
TABS,ioos:station:wmo:42046:1,2008-11-02T09:30:00Z,27.8903,-94.0367,4.0,2.689907062,98.55223115,3.92,'11111222,11111222,11111222' 
TABS,ioos:station:wmo:42046:1,2008-11-02T10:00:00Z,27.8903,-94.0367,4.0,2.92222518,100.8488955,4.55,'11111222,11111222,11111222' 
TABS,ioos:station:wmo:42046:1,2008-11-02T10:30:00Z,27.8903,-94.0367,4.0,2.245105788,83.34939432,3.56,'11111222,11111222,11111222' 
TABS,ioos:station:wmo:42046:1,2008-11-02T11:00:00Z,27.8903,-94.0367,4.0,2.258340098,103.0520557,3.25,'11111222,11111222,11111222' 
TABS,ioos:station:wmo:42046:1,2008-11-02T11:30:00Z,27.8903,-94.0367,4.0,2.168985938,105.5103555,3.71,'11111222,11111222,11111222' 
TABS,ioos:station:wmo:42046:1,2008-11-02T12:00:00Z,27.8903,-94.0367,4.0,2.801945753,82.82385285,4.01,'11111222,11111222,11111222' 
TABS,ioos:station:wmo:42046:1,2008-11-02T12:30:00Z,27.8903,-94.0367,4.0,1.782722637,100.9951726,2.7,'11111222,11111222,11111222' 
TABS,ioos:station:wmo:42046:1,2008-11-02T13:00:00Z,27.8903,-94.0367,4.0,2.551548549,76.39906837,3.9,'11111222,11111222,11111222' 
TABS,ioos:station:wmo:42046:1,2008-11-02T13:30:00Z,27.8903,-94.0367,4.0,2.883678207,80.01464223,4.28,'11111222,11111222,11111222' 
TABS,ioos:station:wmo:42046:1,2008-11-02T14:00:00Z,27.8903,-94.0367,4.0,3.490701935,91.14946318,4.68,'11111222,11111222,11111222' 
TABS,ioos:station:wmo:42046:1,2008-11-02T14:30:00Z,27.8903,-94.0367,4.0,2.798356661,83.43329582,3.99,'11111222,11111222,11111222' 
TABS,ioos:station:wmo:42046:1,2008-11-02T15:00:00Z,27.8903,-94.0367,4.0,3.238826948,98.8810593,5.08,'11111222,11111222,11111222' 
TABS,ioos:station:wmo:42046:1,2008-11-02T15:30:00Z,27.8903,-94.0367,4.0,2.897740499,82.06523413,5.22,'11111222,11111222,11111222' 
TABS,ioos:station:wmo:42046:1,2008-11-02T16:00:00Z,27.8903,-94.0367,4.0,3.523662867,95.04762411,5.36,'11111222,11111222,11111222' 
TABS,ioos:station:wmo:42046:1,2008-11-02T16:30:00Z,27.8903,-94.0367,4.0,3.612478374,94.76405147,5.13,'11111222,11111222,11111222' 
TABS,ioos:station:wmo:42046:1,2008-11-02T17:00:00Z,27.8903,-94.0367,4.0,3.59673463,93.50718929,5.15,'11111222,11111222,11111222' 
TABS,ioos:station:wmo:42046:1,2008-11-02T17:30:00Z,27.8903,-94.0367,4.0,4.092065493,88.17905901,5.64,'11111222,11111222,11111222' 
TABS,ioos:station:wmo:42046:1,2008-11-02T18:00:00Z,27.8903,-94.0367,4.0,3.473859525,84.87982431,4.99,'11111222,11111222,11111222' 
TABS,ioos:station:wmo:42046:1,2008-11-02T18:30:00Z,27.8903,-94.0367,4.0,4.338409847,86.43149112,5.7,'11111222,11111222,11111222' 
TABS,ioos:station:wmo:42046:1,2008-11-02T19:00:00Z,27.8903,-94.0367,4.0,4.332597373,91.98446511,6.58,'11111222,11111222,11111222' 
TABS,ioos:station:wmo:42046:1,2008-11-02T19:30:00Z,27.8903,-94.0367,4.0,4.515584126,83.89760719,6.43,'11111222,11111222,11111222' 
TABS,ioos:station:wmo:42046:1,2008-11-02T20:00:00Z,27.8903,-94.0367,4.0,4.451516595,85.87729091,6.02,'11111222,11111222,11111222' 
TABS,ioos:station:wmo:42046:1,2008-11-02T20:30:00Z,27.8903,-94.0367,4.0,4.690266517,89.38877445,6.62,'11111222,11111222,11111222' 
TABS,ioos:station:wmo:42046:1,2008-11-02T21:00:00Z,27.8903,-94.0367,4.0,4.810654841,86.18551317,6.42,'11111222,11111222,11111222' 
TABS,ioos:station:wmo:42046:1,2008-11-02T21:30:00Z,27.8903,-94.0367,4.0,4.240848972,84.31588604,6.11,'11111222,11111222,11111222' 
TABS,ioos:station:wmo:42046:1,2008-11-02T22:00:00Z,27.8903,-94.0367,4.0,5.080157478,89.54844159,7.47,'11111222,11111222,11111222' 
TABS,ioos:station:wmo:42046:1,2008-11-02T22:30:00Z,27.8903,-94.0367,4.0,4.710265385,90.6086321,6.48,'11111222,11111222,11111222' 
TABS,ioos:station:wmo:42046:1,2008-11-02T23:00:00Z,27.8903,-94.0367,4.0,4.571618969,79.15667999,6.76,'11111222,11111222,11111222' 
TABS,ioos:station:wmo:42046:1,2008-11-02T23:30:00Z,27.8903,-94.0367,4.0,4.371201208,84.35421171,5.8,'11111222,11111222,11111222' 
TABS,ioos:station:wmo:42046:1,2008-11-03T00:00:00Z,27.8903,-94.0367,4.0,4.659291792,75.45634056,7.07,'11111222,11111222,11111222' 
TABS,ioos:station:wmo:42046:1,2008-11-03T00:30:00Z,27.8903,-94.0367,4.0,4.930091277,89.65092834,6.72,'11111222,11111222,11111222' 
TABS,ioos:station:wmo:42046:1,2008-11-03T01:00:00Z,27.8903,-94.0367,4.0,5.36033581,89.3582367,7.21,'11111222,11111222,11111222' 
TABS,ioos:station:wmo:42046:1,2008-11-03T01:30:00Z,27.8903,-94.0367,4.0,5.620222416,89.4898448,7.12,'11111222,11111222,11111222' 
TABS,ioos:station:wmo:42046:1,2008-11-03T02:00:00Z,27.8903,-94.0367,4.0,5.423329236,87.99188228,7.48,'11111222,11111222,11111222' 
TABS,ioos:station:wmo:42046:1,2008-11-03T02:30:00Z,27.8903,-94.0367,4.0,5.637055969,98.1592527,7.23,'11111222,11111222,11111222' 
TABS,ioos:station:wmo:42046:1,2008-11-03T03:00:00Z,27.8903,-94.0367,4.0,5.468528138,100.3239857,7.53,'11111222,11111222,11111222' 
TABS,ioos:station:wmo:42046:1,2008-11-03T03:30:00Z,27.8903,-94.0367,4.0,4.937337339,102.5166124,6.54,'11111222,11111222,11111222' 
TABS,ioos:station:wmo:42046:1,2008-11-03T04:00:00Z,27.8903,-94.0367,4.0,5.055937104,98.53116658,7.38,'11111222,11111222,11111222' 
TABS,ioos:station:wmo:42046:1,2008-11-03T04:30:00Z,27.8903,-94.0367,4.0,5.078287113,105.6513225,7.23,'11111222,11111222,11111222' 
TABS,ioos:station:wmo:42046:1,2008-11-03T05:00:00Z,27.8903,-94.0367,4.0,5.443987509,113.0331237,7.44,'11111222,11111222,11111222' 
TABS,ioos:station:wmo:42046:1,2008-11-03T05:30:00Z,27.8903,-94.0367,4.0,5.416511793,106.6287031,7.2,'11111222,11111222,11111222' 
TABS,ioos:station:wmo:42046:1,2008-11-03T06:00:00Z,27.8903,-94.0367,4.0,5.033696455,120.437039,6.71,'11111222,11111222,11111222' 
TABS,ioos:station:wmo:42046:1,2008-11-03T06:30:00Z,27.8903,-94.0367,4.0,4.746841055,113.5951863,6.45,'11111222,11111222,11111222' 
TABS,ioos:station:wmo:42046:1,2008-11-03T07:00:00Z,27.8903,-94.0367,4.0,4.947453891,110.9630517,7.15,'11111222,11111222,11111222' 
TABS,ioos:station:wmo:42046:1,2008-11-03T07:30:00Z,27.8903,-94.0367,4.0,4.738617942,120.570113,6.74,'11111222,11111222,11111222' 
TABS,ioos:station:wmo:42046:1,2008-11-03T08:00:00Z,27.8903,-94.0367,4.0,4.178253224,126.2394298,5.77,'11111222,11111222,11111222' 
TABS,ioos:station:wmo:42046:1,2008-11-03T08:30:00Z,27.8903,-94.0367,4.0,3.769482723,131.3435371,5.7,'11111222,11111222,11111222' 
TABS,ioos:station:wmo:42046:1,2008-11-03T09:00:00Z,27.8903,-94.0367,4.0,4.154708173,146.3867179,5.67,'11111222,11111222,11111222' 
TABS,ioos:station:wmo:42046:1,2008-11-03T09:30:00Z,27.8903,-94.0367,4.0,3.593229745,125.3711895,5.14,'11111222,11111222,11111222' 
TABS,ioos:station:wmo:42046:1,2008-11-03T10:00:00Z,27.8903,-94.0367,4.0,3.954971555,113.3891811,5.29,'11111222,11111222,11111222' 
TABS,ioos:station:wmo:42046:1,2008-11-03T10:30:00Z,27.8903,-94.0367,4.0,3.914294317,124.9084185,5.89,'11111222,11111222,11111222' 
TABS,ioos:station:wmo:42046:1,2008-11-03T11:00:00Z,27.8903,-94.0367,4.0,4.235115111,116.5049077,6.35,'11111222,11111222,11111222' 
TABS,ioos:station:wmo:42046:1,2008-11-03T11:30:00Z,27.8903,-94.0367,4.0,3.732773768,128.0368634,5.42,'11111222,11111222,11111222' 
TABS,ioos:station:wmo:42046:1,2008-11-03T12:00:00Z,27.8903,-94.0367,4.0,3.974682377,128.9753179,5.86,'11111222,11111222,11111222' 
TABS,ioos:station:wmo:42046:1,2008-11-03T12:30:00Z,27.8903,-94.0367,4.0,4.109622854,111.2580955,6.37,'11111222,11111222,11111222' 
TABS,ioos:station:wmo:42046:1,2008-11-03T13:00:00Z,27.8903,-94.0367,4.0,3.533907186,112.2834971,4.98,'11111222,11111222,11111222' 
TABS,ioos:station:wmo:42046:1,2008-11-03T13:30:00Z,27.8903,-94.0367,4.0,3.298257116,124.7504268,5.13,'11111222,11111222,11111222' 
TABS,ioos:station:wmo:42046:1,2008-11-03T14:00:00Z,27.8903,-94.0367,4.0,3.560126402,127.3530494,5.27,'11111222,11111222,11111222' 
TABS,ioos:station:wmo:42046:1,2008-11-03T14:30:00Z,27.8903,-94.0367,4.0,3.70799137,121.5471118,5.06,'11111222,11111222,11111222' 
TABS,ioos:station:wmo:42046:1,2008-11-03T15:00:00Z,27.8903,-94.0367,4.0,3.815874736,102.8712102,5.25,'11111222,11111222,11111222' 
TABS,ioos:station:wmo:42046:1,2008-11-03T15:30:00Z,27.8903,-94.0367,4.0,3.480416642,119.8064896,5.15,'11111222,11111222,11111222' 
TABS,ioos:station:wmo:42046:1,2008-11-03T16:00:00Z,27.8903,-94.0367,4.0,3.7361076,123.0949307,5.4,'11111222,11111222,11111222' 
TABS,ioos:station:wmo:42046:1,2008-11-03T16:30:00Z,27.8903,-94.0367,4.0,3.438386249,130.8727336,4.74,'11111222,11111222,11111222' 
TABS,ioos:station:wmo:42046:1,2008-11-03T17:00:00Z,27.8903,-94.0367,4.0,3.192318906,123.8895249,4.6,'11111222,11111222,11111222' 
TABS,ioos:station:wmo:42046:1,2008-11-03T17:30:00Z,27.8903,-94.0367,4.0,3.320798097,112.8591293,4.6,'11111222,11111222,11111222' 
TABS,ioos:station:wmo:42046:1,2008-11-03T18:00:00Z,27.8903,-94.0367,4.0,2.906974372,117.006137,4.59,'11111222,11111222,11111222' 
TABS,ioos:station:wmo:42046:1,2008-11-03T18:30:00Z,27.8903,-94.0367,4.0,3.280548735,125.8222582,4.99,'11111222,11111222,11111222' 
TABS,ioos:station:wmo:42046:1,2008-11-03T19:00:00Z,27.8903,-94.0367,4.0,2.665426795,100.5936418,4.36,'11111222,11111222,11111222' 
TABS,ioos:station:wmo:42046:1,2008-11-03T19:30:00Z,27.8903,-94.0367,4.0,2.668951105,105.6508998,4.3,'11111222,11111222,11111222' 
TABS,ioos:station:wmo:42046:1,2008-11-03T20:00:00Z,27.8903,-94.0367,4.0,2.768465279,119.8992528,4.01,'11111222,11111222,11111222' 
TABS,ioos:station:wmo:42046:1,2008-11-03T20:30:00Z,27.8903,-94.0367,4.0,2.741167634,82.8745794,4.39,'11111222,11111222,11111222' 
TABS,ioos:station:wmo:42046:1,2008-11-03T21:00:00Z,27.8903,-94.0367,4.0,2.653186763,97.58077613,4.69,'11111222,11111222,11111222' 
TABS,ioos:station:wmo:42046:1,2008-11-03T21:30:00Z,27.8903,-94.0367,4.0,2.230358716,88.9719647,3.55,'11111222,11111222,11111222' 
TABS,ioos:station:wmo:42046:1,2008-11-03T22:00:00Z,27.8903,-94.0367,4.0,3.239320916,114.8249176,4.81,'11111222,11111222,11111222' 
TABS,ioos:station:wmo:42046:1,2008-11-03T22:30:00Z,27.8903,-94.0367,4.0,3.464808797,84.70036246,5.29,'11111222,11111222,11111222' 
TABS,ioos:station:wmo:42046:1,2008-11-03T23:00:00Z,27.8903,-94.0367,4.0,3.750839906,82.64721692,5.14,'11111222,11111222,11111222' 
TABS,ioos:station:wmo:42046:1,2008-11-03T23:30:00Z,27.8903,-94.0367,4.0,3.730214471,99.41221802,5.37,'11111222,11111222,11111222' 
TABS,ioos:station:wmo:42046:1,2008-11-04T00:00:00Z,27.8903,-94.0367,4.0,3.212226642,95.00105382,5.44,'11111222,11111222,11111222' 
TABS,ioos:station:wmo:42046:1,2008-11-04T00:30:00Z,27.8903,-94.0367,4.0,4.15232465,84.05558914,5.83,'11111222,11111222,11111222' 
TABS,ioos:station:wmo:42046:1,2008-11-04T01:00:00Z,27.8903,-94.0367,4.0,4.518462128,75.77884204,6.23,'11111222,11111222,11111222' 
TABS,ioos:station:wmo:42046:1,2008-11-04T01:30:00Z,27.8903,-94.0367,4.0,4.736348805,117.2687206,6.36,'11111222,11111222,11111222' 
TABS,ioos:station:wmo:42046:1,2008-11-04T02:00:00Z,27.8903,-94.0367,4.0,4.756563886,100.2944694,7.18,'11111222,11111222,11111222' 
TABS,ioos:station:wmo:42046:1,2008-11-04T02:30:00Z,27.8903,-94.0367,4.0,4.825018135,92.61376108,6.84,'11111222,11111222,11111222' 
TABS,ioos:station:wmo:42046:1,2008-11-04T03:00:00Z,27.8903,-94.0367,4.0,4.936527119,101.924917,7.56,'11111222,11111222,11111222' 
TABS,ioos:station:wmo:42046:1,2008-11-04T03:30:00Z,27.8903,-94.0367,4.0,5.235666147,97.57335185,7.26,'11111222,11111222,11111222' 
TABS,ioos:station:wmo:42046:1,2008-11-04T04:00:00Z,27.8903,-94.0367,4.0,5.877431412,99.89543513,8.17,'11111222,11111222,11111222' 
TABS,ioos:station:wmo:42046:1,2008-11-04T04:30:00Z,27.8903,-94.0367,4.0,5.257318708,102.6355868,7.12,'11111222,11111222,11111222' 
TABS,ioos:station:wmo:42046:1,2008-11-04T05:00:00Z,27.8903,-94.0367,4.0,4.649817201,111.7102529,7.28,'11111222,11111222,11111222' 
TABS,ioos:station:wmo:42046:1,2008-11-04T05:30:00Z,27.8903,-94.0367,4.0,4.258227331,127.4622752,5.69,'11111222,11111222,11111222' 
TABS,ioos:station:wmo:42046:1,2008-11-04T06:00:00Z,27.8903,-94.0367,4.0,3.900064102,122.7532245,5.61,'11111222,11111222,11111222' 
TABS,ioos:station:wmo:42046:1,2008-11-04T06:30:00Z,27.8903,-94.0367,4.0,3.695957251,118.4376034,5.69,'11111222,11111222,11111222' 
TABS,ioos:station:wmo:42046:1,2008-11-04T07:00:00Z,27.8903,-94.0367,4.0,4.10182886,117.7523909,6.66,'11111222,11111222,11111222' 
TABS,ioos:station:wmo:42046:1,2008-11-04T07:30:00Z,27.8903,-94.0367,4.0,3.660833238,118.7357222,5.69,'11111222,11111222,11111222' 
TABS,ioos:station:wmo:42046:1,2008-11-04T08:00:00Z,27.8903,-94.0367,4.0,3.673472472,125.2479136,5.17,'11111222,11111222,11111222' 
TABS,ioos:station:wmo:42046:1,2008-11-04T08:30:00Z,27.8903,-94.0367,4.0,3.945491097,131.6097435,5.53,'11111222,11111222,11111222' 
TABS,ioos:station:wmo:42046:1,2008-11-04T09:00:00Z,27.8903,-94.0367,4.0,3.489412558,118.0342073,5.37,'11111222,11111222,11111222' 
TABS,ioos:station:wmo:42046:1,2008-11-04T09:30:00Z,27.8903,-94.0367,4.0,3.821884352,114.4195045,5.1,'11111222,11111222,11111222' 
TABS,ioos:station:wmo:42046:1,2008-11-04T10:00:00Z,27.8903,-94.0367,4.0,3.762352987,118.0638842,5.15,'11111222,11111222,11111222' 
TABS,ioos:station:wmo:42046:1,2008-11-04T10:30:00Z,27.8903,-94.0367,4.0,4.350287347,126.2116907,5.97,'11111222,11111222,11111222' 
TABS,ioos:station:wmo:42046:1,2008-11-04T11:00:00Z,27.8903,-94.0367,4.0,2.823473039,124.0281011,4.34,'11111222,11111222,11111222' 
TABS,ioos:station:wmo:42046:1,2008-11-04T11:30:00Z,27.8903,-94.0367,4.0,3.344981315,123.1678271,4.92,'11111222,11111222,11111222' 
TABS,ioos:station:wmo:42046:1,2008-11-04T12:00:00Z,27.8903,-94.0367,4.0,2.594802497,159.4700571,3.84,'11111222,11111222,11111222' 
TABS,ioos:station:wmo:42046:1,2008-11-04T12:30:00Z,27.8903,-94.0367,4.0,1.488220414,138.8143816,2.48,'11111222,11111222,11111222' 
TABS,ioos:station:wmo:42046:1,2008-11-04T13:00:00Z,27.8903,-94.0367,4.0,2.213255521,135.1833682,3.13,'11111222,11111222,11111222' 
TABS,ioos:station:wmo:42046:1,2008-11-04T13:30:00Z,27.8903,-94.0367,4.0,1.263962025,94.53818281,2.24,'11111222,11111222,11111222' 
TABS,ioos:station:wmo:42046:1,2008-11-04T14:00:00Z,27.8903,-94.0367,4.0,1.134416149,146.8705525,2.22,'11111222,11111222,11111222' 
TABS,ioos:station:wmo:42046:1,2008-11-04T14:30:00Z,27.8903,-94.0367,4.0,1.471393897,117.0878482,3.04,'11111222,11111222,11111222' 
TABS,ioos:station:wmo:42046:1,2008-11-04T15:00:00Z,27.8903,-94.0367,4.0,1.02474387,118.5661909,3.77,'11111222,11111222,11111222' 
TABS,ioos:station:wmo:42046:1,2008-11-04T15:30:00Z,27.8903,-94.0367,4.0,1.478681845,96.21222842,2.88,'11111222,11111222,11111222' 
TABS,ioos:station:wmo:42046:1,2008-11-04T16:00:00Z,27.8903,-94.0367,4.0,1.732166274,126.0763481,3.04,'11111222,11111222,11111222' 
TABS,ioos:station:wmo:42046:1,2008-11-04T16:30:00Z,27.8903,-94.0367,4.0,1.68252786,114.5852323,3.25,'11111222,11111222,11111222' 
TABS,ioos:station:wmo:42046:1,2008-11-04T17:00:00Z,27.8903,-94.0367,4.0,1.149782588,103.0697083,1.97,'11111222,11111222,11111222' 
TABS,ioos:station:wmo:42046:1,2008-11-04T17:30:00Z,27.8903,-94.0367,4.0,1.854561943,94.01999401,3.05,'11111222,11111222,11111222' 
TABS,ioos:station:wmo:42046:1,2008-11-04T18:00:00Z,27.8903,-94.0367,4.0,1.216429201,116.3547652,3.17,'11111222,11111222,11111222' 
TABS,ioos:station:wmo:42046:1,2008-11-04T18:30:00Z,27.8903,-94.0367,4.0,1.390539464,139.6671631,2.67,'11111222,11111222,11111222' 